| time (UTC) | temp C | wind direction | speed KPH | gust KPH | rain 1hr cm | rain 24hr cm | rain mn cm | humidity % | barometer mb |
| 20260504044535 | 10 | 183 | 6.4 | 19.3 | 0.00 | 0.00 | 0.00 | 69 | 1010.8 |
| 20260504043045 | 10 | 234 | 6.4 | 14.5 | 0.00 | 0.00 | 0.00 | 69 | 1010.9 |
| 20260504041536 | 10 | 222 | 4.8 | 12.9 | 0.00 | 0.00 | 0.00 | 70 | 1011.0 |
| 20260504040035 | 10 | 192 | 4.8 | 17.7 | 0.00 | 0.00 | 0.00 | 70 | 1011.2 |
| 20260504034537 | 10 | 158 | 3.2 | 8.0 | 0.00 | 0.00 | 0.00 | 70 | 1011.4 |
| 20260504033038 | 10 | 229 | 1.6 | 9.7 | 0.00 | 0.00 | 0.00 | 69 | 1011.4 |
| 20260504031540 | 10 | 193 | 3.2 | 11.3 | 0.00 | 0.00 | 0.00 | 69 | 1011.8 |
| 20260504030035 | 10 | 185 | 1.6 | 12.9 | 0.00 | 0.00 | 0.00 | 68 | 1011.9 |
| 20260504024536 | 10 | 227 | 1.6 | 9.7 | 0.00 | 0.00 | 0.00 | 68 | 1012.0 |
| 20260504023034 | 11 | 242 | 3.2 | 14.5 | 0.00 | 0.00 | 0.00 | 67 | 1012.2 |
| 20260504021533 | 11 | 232 | 3.2 | 20.9 | 0.00 | 0.00 | 0.00 | 66 | 1012.2 |
| 20260504020036 | 11 | 214 | 4.8 | 14.5 | 0.00 | 0.00 | 0.00 | 66 | 1012.2 |
| 20260504014540 | 11 | 279 | 1.6 | 14.5 | 0.00 | 0.00 | 0.00 | 65 | 1012.3 |
| 20260504013047 | 11 | 241 | 6.4 | 19.3 | 0.00 | 0.00 | 0.00 | 64 | 1012.3 |
| 20260504011538 | 11 | 236 | 3.2 | 14.5 | 0.00 | 0.00 | 0.00 | 63 | 1012.3 |
| 20260504010039 | 12 | 284 | 8.0 | 17.7 | 0.00 | 0.00 | 0.00 | 62 | 1012.2 |
| 20260504004532 | 12 | 291 | 3.2 | 19.3 | 0.00 | 0.00 | 0.00 | 57 | 1012.1 |
| 20260504003036 | 13 | 292 | 3.2 | 12.9 | 0.00 | 0.00 | 0.00 | 49 | 1011.7 |
| 20260504001540 | 13 | 226 | 4.8 | 20.9 | 0.00 | 0.00 | 0.00 | 46 | 1011.7 |
| 20260504000034 | 14 | 266 | 3.2 | 29.0 | 0.00 | 0.00 | 0.00 | 45 | 1011.6 |
| 20260503234535 | 15 | 215 | 8.0 | 22.5 | 0.00 | 0.00 | 0.00 | 45 | 1011.6 |
| 20260503233042 | 15 | 277 | 8.0 | 22.5 | 0.00 | 0.00 | 0.00 | 42 | 1011.8 |
| 20260503231536 | 15 | 202 | 6.4 | 19.3 | 0.00 | 0.00 | 0.00 | 43 | 1011.7 |
| 20260503230035 | 16 | 240 | 9.7 | 25.7 | 0.00 | 0.00 | 0.00 | 42 | 1011.8 |
| 20260503224535 | 16 | 242 | 4.8 | 20.9 | 0.00 | 0.00 | 0.00 | 42 | 1011.7 |
| 20260503223034 | 16 | 270 | 12.9 | 29.0 | 0.00 | 0.00 | 0.00 | 40 | 1011.8 |
| 20260503221536 | 16 | 262 | 9.7 | 27.4 | 0.00 | 0.00 | 0.00 | 41 | 1012.0 |
| 20260503220035 | 17 | 251 | 4.8 | 24.1 | 0.00 | 0.00 | 0.00 | 43 | 1012.0 |
| 20260503214535 | 16 | 250 | 6.4 | 19.3 | 0.00 | 0.00 | 0.00 | 44 | 1012.1 |
| 20260503213033 | 16 | 305 | 9.7 | 24.1 | 0.00 | 0.00 | 0.00 | 42 | 1012.1 |
| 20260503211535 | 16 | 226 | 8.0 | 25.7 | 0.00 | 0.00 | 0.00 | 43 | 1012.1 |
| 20260503210034 | 16 | 209 | 8.0 | 24.1 | 0.00 | 0.00 | 0.00 | 44 | 1012.1 |
| 20260503204532 | 16 | 254 | 8.0 | 29.0 | 0.00 | 0.00 | 0.00 | 44 | 1012.4 |
| 20260503203040 | 16 | 129 | 9.7 | 24.1 | 0.00 | 0.00 | 0.00 | 45 | 1012.3 |
| 20260503201543 | 16 | 182 | 8.0 | 25.7 | 0.00 | 0.00 | 0.00 | 44 | 1012.4 |
| 20260503200035 | 17 | 321 | 9.7 | 29.0 | 0.00 | 0.00 | 0.00 | 41 | 1012.7 |
| 20260503194533 | 16 | 205 | 9.7 | 33.8 | 0.00 | 0.00 | 0.00 | 43 | 1012.9 |
| 20260503193031 | 16 | 249 | 6.4 | 24.1 | 0.00 | 0.00 | 0.00 | 46 | 1013.1 |
| 20260503191538 | 16 | 163 | 11.3 | 30.6 | 0.00 | 0.00 | 0.00 | 44 | 1013.4 |
| 20260503190041 | 16 | 288 | 11.3 | 27.4 | 0.00 | 0.00 | 0.00 | 45 | 1013.5 |
| 20260503184538 | 16 | 254 | 11.3 | 30.6 | 0.00 | 0.00 | 0.00 | 45 | 1013.6 |
| 20260503183035 | 16 | 262 | 6.4 | 22.5 | 0.00 | 0.00 | 0.00 | 49 | 1013.9 |
| 20260503181535 | 15 | 86 | 8.0 | 27.4 | 0.00 | 0.00 | 0.00 | 45 | 1013.9 |
| 20260503180045 | 16 | 267 | 9.7 | 24.1 | 0.00 | 0.00 | 0.00 | 44 | 1014.2 |
| 20260503174535 | 16 | 286 | 8.0 | 24.1 | 0.00 | 0.00 | 0.00 | 46 | 1014.2 |
| 20260503173040 | 15 | 218 | 11.3 | 24.1 | 0.00 | 0.00 | 0.00 | 47 | 1014.4 |
| 20260503171536 | 15 | 308 | 11.3 | 25.7 | 0.00 | 0.00 | 0.00 | 47 | 1014.7 |
| 20260503081535 | 1 | 174 | 0.0 | 4.8 | 0.00 | 0.30 | 0.00 | 82 | 1016.1 |
| 20260503071535 | 1 | 0 | 0.0 | 1.6 | 0.00 | 0.30 | 0.00 | 84 | 1016.2 |